sat.trackr.live / text

‹ back to catalog

STARLINK-31295

NORAD 59095 · 2024-041X

PAYLOAD ACTIVE UNKNOWN

§ Identity

Operator
Country
US
Launch date
2024-02-29
Launch site
AFETR
Launch vehicle
Mass (kg)
RCS (m²)

Purposes: comms

External: N2YO · Heavens-Above · Gunter

§ Orbital elements

Epoch: 2026-05-24T17:54:19.158048Z

Period
94.27 min
Inclination
43.0005°
Eccentricity
0.0001299
Mean motion
15.27586703 rev/d
Perigee alt
482.1 km
Apogee alt
483.9 km
Semi-major
6,861.2 km
B*
-7.4874e-7
RAAN
241.1491°
Arg perigee
268.2509°
Mean anomaly
91.8194°
Rev number
12,590

§ Raw data

STARLINK-312951 59095U 24041X   26144.74605507 -.00000283  00000+0 -74874-6 0  99902 59095  43.0005 241.1491 0001299 268.2509  91.8194 15.27586703125900

JSON: /api/v1/satellites/59095 · /tle

For live sub-satellite position, see the globe view (requires WebGL).

§ Visibility from observer

Set your observer location to see the next 7 days of passes ≥ 10°. The values pass through the URL so the page stays shareable.

No JS? Fill the form by hand. The geolocation button needs JavaScript.